TimeCST,TemperatureF,Dew PointF,Humidity,Sea Level PressureIn,VisibilityMPH,Wind Direction,Wind SpeedMPH,Gust SpeedMPH,PrecipitationIn,Events,Conditions,WindDirDegrees,DateUTC
12:15 AM,28.4,21.2,74,30.20,10.0,NW,4.6,-,N/A,,Overcast,320,2013-03-03 06:15:00
12:35 AM,28.4,19.4,69,30.19,10.0,NW,3.5,-,N/A,,Overcast,320,2013-03-03 06:35:00
1:15 AM,28.4,19.4,69,30.19,10.0,NW,6.9,-,N/A,,Overcast,320,2013-03-03 07:15:00
1:55 AM,28.4,15.8,59,30.18,10.0,NNW,8.1,-,N/A,,Overcast,330,2013-03-03 07:55:00
2:15 AM,26.6,15.8,64,30.18,10.0,NNW,8.1,-,N/A,,Overcast,330,2013-03-03 08:15:00
2:35 AM,26.6,15.8,64,30.18,10.0,NW,5.8,-,N/A,,Overcast,320,2013-03-03 08:35:00
2:55 AM,26.6,15.8,64,30.18,10.0,NW,6.9,-,N/A,,Mostly Cloudy,320,2013-03-03 08:55:00
3:15 AM,24.8,15.8,69,30.18,10.0,NW,6.9,-,N/A,,Scattered Clouds,320,2013-03-03 09:15:00
3:35 AM,26.6,15.8,64,30.18,10.0,NW,8.1,-,N/A,,Scattered Clouds,320,2013-03-03 09:35:00
3:55 AM,26.6,17.6,69,30.18,10.0,NW,6.9,-,N/A,,Overcast,320,2013-03-03 09:55:00
4:15 AM,26.6,17.6,69,30.18,10.0,NNW,4.6,-,N/A,,Overcast,330,2013-03-03 10:15:00
4:35 AM,24.8,17.6,74,30.18,10.0,NW,4.6,-,N/A,,Mostly Cloudy,320,2013-03-03 10:35:00
4:55 AM,24.8,17.6,74,30.18,10.0,NW,5.8,-,N/A,,Partly Cloudy,310,2013-03-03 10:55:00
5:35 AM,23.0,17.6,80,30.18,10.0,NW,4.6,-,N/A,,Clear,310,2013-03-03 11:35:00
5:55 AM,23.0,17.6,80,30.18,10.0,NW,3.5,-,N/A,,Clear,320,2013-03-03 11:55:00
6:15 AM,23.0,17.6,80,30.18,10.0,NNW,4.6,-,N/A,,Clear,330,2013-03-03 12:15:00
6:35 AM,23.0,17.6,80,30.18,10.0,NNW,5.8,-,N/A,,Clear,330,2013-03-03 12:35:00
6:55 AM,24.8,17.6,74,30.19,10.0,NW,4.6,-,N/A,,Clear,320,2013-03-03 12:55:00
7:15 AM,24.8,17.6,74,30.19,10.0,NNW,5.8,-,N/A,,Clear,330,2013-03-03 13:15:00
7:35 AM,26.6,17.6,69,30.19,10.0,NNW,5.8,-,N/A,,Clear,340,2013-03-03 13:35:00
7:55 AM,26.6,17.6,69,30.20,10.0,NNW,6.9,-,N/A,,Clear,330,2013-03-03 13:55:00
8:15 AM,26.6,17.6,69,30.19,10.0,NNW,5.8,-,N/A,,Clear,330,2013-03-03 14:15:00
8:35 AM,28.4,17.6,64,30.20,10.0,NW,5.8,-,N/A,,Clear,320,2013-03-03 14:35:00
8:55 AM,28.4,15.8,59,30.19,10.0,NW,8.1,-,N/A,,Clear,310,2013-03-03 14:55:00
9:15 AM,30.2,15.8,55,30.20,10.0,North,6.9,-,N/A,,Clear,350,2013-03-03 15:15:00
9:55 AM,32.0,15.8,51,30.20,10.0,WNW,9.2,-,N/A,,Clear,290,2013-03-03 15:55:00
10:15 AM,32.0,15.8,51,30.20,10.0,NNW,8.1,-,N/A,,Clear,340,2013-03-03 16:15:00
10:35 AM,32.0,15.8,51,30.20,10.0,NW,6.9,-,N/A,,Clear,310,2013-03-03 16:35:00
10:55 AM,32.0,14.0,48,30.19,10.0,North,4.6,-,N/A,,Clear,360,2013-03-03 16:55:00
11:15 AM,35.6,17.6,48,30.19,10.0,West,10.4,-,N/A,,Clear,280,2013-03-03 17:15:00
11:35 AM,35.6,15.8,44,30.19,10.0,West,6.9,-,N/A,,Clear,280,2013-03-03 17:35:00
11:55 AM,35.6,15.8,44,30.18,10.0,WNW,8.1,-,N/A,,Clear,300,2013-03-03 17:55:00
12:15 PM,35.6,15.8,44,30.16,10.0,West,4.6,-,N/A,,Clear,260,2013-03-03 18:15:00
12:35 PM,35.6,15.8,44,30.15,10.0,West,4.6,-,N/A,,Clear,270,2013-03-03 18:35:00
12:55 PM,37.4,15.8,41,30.15,10.0,West,4.6,-,N/A,,Clear,270,2013-03-03 18:55:00
1:15 PM,37.4,17.6,45,30.14,10.0,WSW,6.9,-,N/A,,Clear,250,2013-03-03 19:15:00
1:35 PM,39.2,17.6,42,30.14,10.0,WSW,5.8,-,N/A,,Clear,250,2013-03-03 19:35:00
1:55 PM,39.2,15.8,39,30.13,10.0,NW,9.2,-,N/A,,Clear,310,2013-03-03 19:55:00
2:15 PM,39.2,17.6,42,30.13,10.0,WSW,6.9,-,N/A,,Clear,250,2013-03-03 20:15:00
3:15 PM,39.2,17.6,42,30.12,10.0,West,8.1,-,N/A,,Mostly Cloudy,280,2013-03-03 21:15:00
3:35 PM,39.2,17.6,42,30.11,10.0,WSW,6.9,-,N/A,,Mostly Cloudy,240,2013-03-03 21:35:00
3:55 PM,39.2,15.8,39,30.10,10.0,WSW,4.6,-,N/A,,Scattered Clouds,250,2013-03-03 21:55:00
4:35 PM,39.2,15.8,39,30.10,10.0,West,6.9,-,N/A,,Overcast,280,2013-03-03 22:35:00
4:55 PM,39.2,15.8,39,30.10,10.0,WSW,4.6,-,N/A,,Overcast,250,2013-03-03 22:55:00
5:15 PM,39.2,15.8,39,30.09,10.0,WSW,3.5,-,N/A,,Overcast,250,2013-03-03 23:15:00
5:55 PM,37.4,17.6,45,30.09,10.0,Calm,Calm,-,N/A,,Overcast,0,2013-03-03 23:55:00
6:15 PM,37.4,17.6,45,30.09,10.0,Calm,Calm,-,N/A,,Overcast,0,2013-03-04 00:15:00
6:35 PM,37.4,15.8,41,30.10,10.0,Calm,Calm,-,N/A,,Overcast,0,2013-03-04 00:35:00
6:55 PM,37.4,15.8,41,30.10,10.0,Calm,Calm,-,N/A,,Overcast,0,2013-03-04 00:55:00
7:15 PM,35.6,23.0,60,30.09,10.0,Calm,Calm,-,N/A,,Overcast,0,2013-03-04 01:15:00
7:35 PM,35.6,19.4,52,30.10,10.0,Calm,Calm,-,N/A,,Mostly Cloudy,0,2013-03-04 01:35:00
7:55 PM,35.6,19.4,52,30.09,10.0,Calm,Calm,-,N/A,,Mostly Cloudy,0,2013-03-04 01:55:00
8:15 PM,35.6,21.2,56,30.10,10.0,Calm,Calm,-,N/A,,Overcast,0,2013-03-04 02:15:00
8:35 PM,35.6,23.0,60,30.10,10.0,Calm,Calm,-,N/A,,Overcast,0,2013-03-04 02:35:00
8:55 PM,35.6,24.8,65,30.11,10.0,SSW,3.5,-,N/A,,Overcast,200,2013-03-04 02:55:00
9:15 PM,35.6,19.4,52,30.11,10.0,Calm,Calm,-,N/A,,Overcast,0,2013-03-04 03:15:00
9:35 PM,35.6,28.4,75,30.10,10.0,SSW,3.5,-,N/A,,Overcast,200,2013-03-04 03:35:00
9:55 PM,35.6,23.0,60,30.10,10.0,SSE,3.5,-,N/A,,Overcast,160,2013-03-04 03:55:00
10:15 PM,35.6,28.4,75,30.09,10.0,SSE,3.5,-,N/A,,Overcast,150,2013-03-04 04:15:00
10:35 PM,35.6,23.0,60,30.09,10.0,Calm,Calm,-,N/A,,Overcast,0,2013-03-04 04:35:00
10:55 PM,35.6,24.8,65,30.10,10.0,Calm,Calm,-,N/A,,Overcast,0,2013-03-04 04:55:00
11:15 PM,35.6,24.8,65,30.10,10.0,Calm,Calm,-,N/A,,Overcast,0,2013-03-04 05:15:00
11:35 PM,35.6,26.6,70,30.10,10.0,Calm,Calm,-,N/A,,Overcast,0,2013-03-04 05:35:00
11:55 PM,35.6,26.6,70,30.10,10.0,East,3.5,-,N/A,,Overcast,100,2013-03-04 05:55:00